Stations météo

Publicité
Strasbourg, France (7190): Température de l'air & dewpoint: 19.05.2017 08:00:00 - 25.05.2017 08:00:00 (CEST)Strasbourg, France (7190): Température de l'air 5cm: 19.05.2017 08:00:00 - 25.05.2017 08:00:00 (CEST)Strasbourg, France (7190): Température de l'air -20cm & Température de l'air -100cm: 19.05.2017 08:00:00 - 25.05.2017 08:00:00 (CEST)Strasbourg, France (7190): Vitesse du vent & gusts: 19.05.2017 08:00:00 - 25.05.2017 08:00:00 (CEST)Strasbourg, France (7190): Direction du vent: 19.05.2017 08:00:00 - 25.05.2017 08:00:00 (CEST)Strasbourg, France (7190): reduced air pressure: 19.05.2017 08:00:00 - 25.05.2017 08:00:00 (CEST)Strasbourg, France (7190): visibility: 19.05.2017 08:00:00 - 25.05.2017 08:00:00 (CEST)Strasbourg, France (7190): Ensoleillement: 19.05.2017 08:00:00 - 25.05.2017 08:00:00 (CEST)Strasbourg, France (7190): Quantités de précipitations: 19.05.2017 08:00:00 - 25.05.2017 08:00:00 (CEST)
Date & Time tt [°C] td [°C] tt 5cm [°C] tt -20cm [°C] tt -100cm [°C] ff [km/h] ff [knt] fx [km/h] fx [knt] dd ppp [hPa] vv [km] sd [min] rr [mm]
25.05.2017 08:00:00 17,9 12,8 17,5 21,5 16,1 13 7 18 10 N 1022,0 20 60 0,0
25.05.2017 07:00:00 15,8 12,4 13,6 21,7 16,0 5 3 10 5 NW 1022,0 20 16 0,0
25.05.2017 06:00:00 14,3 11,8 11,7 22,0 16,0 8 4 10 6 NNW 1022,2 19 0 0,0
25.05.2017 05:00:00 15,2 12,0 12,5 22,3 16,0 4 2 7 4 S 1022,0 28 0 0,0
25.05.2017 04:00:00 15,7 11,5 12,6 22,5 16,0 0 0 9 5 N 1022,0 33 0 0,0
25.05.2017 03:00:00 16,4 11,8 14,2 22,8 16,0 7 4 11 6 NNW 1022,1 40 0 0,0
25.05.2017 02:00:00 17,1 12,2 15,3 23,0 16,0 9 5 12 6 NNW 1022,4 47 0 0,0
25.05.2017 01:00:00 18,2 12,6 17,1 23,3 16,0 6 4 12 7 NNW 1022,7 60 0 0,0
25.05.2017 00:00:00 18,6 12,8 16,4 23,5 15,9 2 1 9 5 W 1022,8 21 0 0,0
24.05.2017 23:00:00 20,4 12,1 18,1 23,6 15,9 9 5 16 9 NE 1022,8 60 0 0,0
24.05.2017 22:00:00 21,5 12,1 20,7 23,8 15,9 7 4 13 7 NW 1022,5 60 0 0,0
24.05.2017 21:00:00 22,2 11,6 21,6 23,9 15,9 9 5 19 11 NW 1022,1 60 7 0,0
24.05.2017 20:00:00 23,0 11,1 23,2 23,8 15,9 8 5 20 11 NNW 1022,1 59 27 0,0
24.05.2017 19:00:00 23,6 10,6 25,3 23,5 15,9 12 7 24 13 NNW 1021,8 43 56 0,0
24.05.2017 18:00:00 24,0 10,3 26,5 23,2 15,9 14 7 27 15 NNW 1022,2 47 49 0,0
24.05.2017 17:00:00 24,5 10,4 29,9 22,6 15,8 13 7 37 20 NNW 1022,5 39 60 0,0
24.05.2017 16:00:00 24,3 10,9 28,6 22,1 15,9 12 6 22 12 NNE 1022,8 59 60 0,0
24.05.2017 15:00:00 23,2 9,9 28,0 21,5 15,8 16 9 28 15 NE 1023,3 28 60 0,0
24.05.2017 14:00:00 22,7 9,1 28,4 20,9 15,8 9 5 23 12 NNE 1023,8 59 60 0,0
24.05.2017 13:00:00 21,6 10,1 26,8 20,5 15,8 6 3 25 13 W 1024,0 53 60 0,0
24.05.2017 12:00:00 21,3 9,5 25,1 20,2 15,8 8 4 27 15 NW 1024,8 18 60 0,0
24.05.2017 11:00:00 20,5 7,8 24,6 20,1 15,7 9 5 26 14 NNE 1025,0 45 60 0,0
24.05.2017 10:00:00 19,5 8,2 23,9 20,1 15,8 3 2 12 6 ESE 1025,1 55 60 0,0
24.05.2017 09:00:00 19,2 8,2 21,2 20,2 15,7 3 2 9 5 N 1025,1 57 53 0,0
24.05.2017 08:00:00 17,7 10,8 17,0 20,4 15,7 2 1 9 5 WNW 1025,0 46 60 0,0
24.05.2017 07:00:00 14,7 9,7 11,4 20,6 15,7 6 3 9 5 WSW 1024,6 39 32 0,0
24.05.2017 06:00:00 12,7 9,5 11,5 20,9 15,7 4 2 10 6 WSW 1024,4 49 0 0,0
24.05.2017 05:00:00 14,7 9,1 11,9 21,2 15,7 6 3 18 10 NNE 1024,1 59 0 0,0
24.05.2017 04:00:00 15,5 10,5 14,0 21,5 15,7 11 6 21 11 NNE 1023,8 51 0 0,0
24.05.2017 03:00:00 16,7 10,5 15,9 21,7 15,7 13 7 26 14 NW 1022,8 57 0 0,0
24.05.2017 02:00:00 17,8 11,4 17,1 22,0 15,6 15 8 27 15 NW 1022,4 57 0 0,0
24.05.2017 01:00:00 18,8 12,1 18,1 22,3 15,6 17 9 26 14 NW 1022,1 57 0 0,0
24.05.2017 00:00:00 19,6 12,6 18,7 22,5 15,6 14 7 27 14 WNW 1021,7 58 0 0,0
23.05.2017 23:00:00 20,1 11,6 19,0 22,7 15,6 14 8 23 13 W 1021,2 60 0 0,0
23.05.2017 22:00:00 21,2 10,7 19,8 22,9 15,6 12 7 28 15 W 1020,7 53 0 0,0
23.05.2017 21:00:00 22,8 12,4 21,9 22,9 15,6 18 10 28 15 WNW 1019,7 53 41 0,0
23.05.2017 20:00:00 24,6 12,2 25,5 22,8 15,6 16 9 35 19 WNW 1019,0 38 60 0,0
23.05.2017 19:00:00 25,8 13,3 26,9 22,6 15,6 22 12 35 19 NW 1018,6 38 53 0,0
23.05.2017 18:00:00 27,1 11,9 28,7 22,3 15,5 18 10 37 20 WNW 1018,1 45 55 0,0
23.05.2017 17:00:00 27,4 12,6 28,1 21,9 15,6 18 10 34 18 WNW 1018,2 58 36 0,0
23.05.2017 16:00:00 27,7 12,5 26,9 21,6 15,5 18 10 34 18 W 1018,0 44 46 0,0
23.05.2017 15:00:00 26,7 12,4 27,0 21,1 15,5 19 11 33 18 NW 1018,1 45 24 0,0
23.05.2017 14:00:00 27,1 10,7 28,9 20,6 15,5 13 7 24 13 NW 1018,0 60 49 0,0
23.05.2017 13:00:00 26,4 9,3 29,8 20,2 15,5 10 6 25 14 SW 1018,3 48 60 0,0
23.05.2017 12:00:00 25,4 11,9 29,3 19,9 15,5 8 4 30 16 SW 1018,5 38 60 0,0
23.05.2017 11:00:00 23,9 13,7 28,4 19,7 15,5 8 4 16 9 SW 1018,6 55 60 0,0
23.05.2017 10:00:00 21,0 13,9 21,0 19,8 15,5 7 4 13 7 S 1018,7 43 55 0,0
23.05.2017 09:00:00 17,4 12,9 17,1 19,9 15,5 8 4 13 7 S 1018,8 34 22 0,0
23.05.2017 08:00:00 15,1 12,0 14,6 20,1 15,5 5 3 9 5 SSW 1018,4 26 0 0,0
23.05.2017 07:00:00 14,0 11,5 12,8 20,3 15,5 3 2 9 5 SSW 1018,0 24 0 0,0
23.05.2017 06:00:00 13,0 11,2 11,0 20,6 15,5 6 3 10 6 SW 1017,5 19 0 0,0
23.05.2017 05:00:00 12,8 10,9 10,4 20,9 15,5 3 1 8 4 S 1017,4 24 0 0,0
23.05.2017 04:00:00 12,8 10,9 10,6 21,2 15,4 4 2 10 5 SSE 1017,3 25 0 0,0
23.05.2017 03:00:00 13,8 11,1 11,5 21,5 15,5 3 2 6 4 SW 1017,1 27 0 0,0
23.05.2017 02:00:00 15,2 11,2 12,5 21,8 15,4 5 3 8 4 SSW 1017,0 36 0 0,0
23.05.2017 01:00:00 15,8 11,8 14,7 22,1 15,4 4 2 10 6 W 1017,2 37 0 0,0
23.05.2017 00:00:00 16,2 11,8 15,0 22,3 15,4 4 2 7 4 W 1016,7 35 0 0,0
22.05.2017 23:00:00 17,7 11,9 15,9 22,5 15,4 4 2 6 4 W 1016,6 42 0 0,0
22.05.2017 22:00:00 18,4 12,2 16,1 22,7 15,4 5 3 6 4 N 1016,3 59 0 0,0
22.05.2017 21:00:00 21,5 11,8 17,3 22,6 15,4 4 2 8 5 ENE 1015,6 59 9 0,0
22.05.2017 20:00:00 23,3 10,0 23,0 22,5 15,4 9 5 15 8 NNE 1015,5 60 42 0,0
22.05.2017 19:00:00 24,2 9,4 24,8 22,1 15,4 10 6 16 9 NNE 1015,4 46 58 0,0
22.05.2017 18:00:00 24,7 9,0 28,7 21,6 15,4 4 2 14 7 W 1015,6 43 60 0,0
22.05.2017 17:00:00 25,2 8,6 30,4 20,9 15,4 5 3 13 7 NW 1015,8 20 60 0,0
22.05.2017 16:00:00 24,7 10,2 29,5 20,2 15,3 4 2 - - SSE 1016,4 53 - -
22.05.2017 15:00:00 23,8 10,5 29,7 19,5 15,4 7 4 16 8 SSE 1017,0 19 60 0,0
22.05.2017 14:00:00 23,0 - 29,3 18,8 15,4 5 3 15 8 E - 48 60 -
22.05.2017 13:00:00 22,4 11,5 27,6 18,3 15,4 9 5 16 9 S 1017,9 32 60 0,0
22.05.2017 12:00:00 21,1 10,9 26,6 17,9 15,4 6 3 12 6 NNW 1018,6 34 60 0,0
22.05.2017 11:00:00 20,0 11,0 - - - 4 2 9 5 NE 1018,9 19 - -
22.05.2017 10:00:00 18,2 10,3 23,5 17,7 15,4 5 3 10 5 N 1019,3 25 60 0,0
22.05.2017 09:00:00 16,1 10,0 19,4 17,9 15,4 5 3 10 6 N 1019,5 20 60 0,0
22.05.2017 08:00:00 14,2 9,0 15,4 18,1 15,4 8 4 11 6 N 1019,8 36 60 0,0
22.05.2017 07:00:00 11,7 9,1 8,3 18,4 15,4 4 2 7 4 NW 1019,9 38 47 0,0
22.05.2017 06:00:00 9,9 7,7 7,9 18,7 15,4 4 2 6 3 WNW 1019,8 43 0 0,0
22.05.2017 05:00:00 9,7 8,0 7,6 19,0 15,4 4 2 7 4 WNW 1019,9 50 0 0,0
22.05.2017 04:00:00 10,1 8,4 8,3 19,3 15,4 5 3 9 5 NW 1020,1 52 0 0,0
22.05.2017 03:00:00 10,8 8,6 9,5 19,6 15,4 8 4 9 5 WNW 1020,5 60 0 0,0
22.05.2017 02:00:00 11,7 8,7 9,9 19,8 15,4 5 3 8 4 WNW 1020,6 58 0 0,0
22.05.2017 01:00:00 12,8 9,2 10,8 20,1 15,4 5 3 9 5 N 1020,8 60 0 0,0
22.05.2017 00:00:00 14,6 8,3 11,3 20,4 15,4 5 3 17 9 N 1021,1 60 0 0,0
21.05.2017 23:00:00 16,3 8,5 13,9 20,5 15,4 11 6 17 9 NNE 1021,2 60 0 0,0
21.05.2017 22:00:00 17,0 8,2 15,3 20,7 15,5 10 5 21 11 NNE 1021,4 60 0 0,0
21.05.2017 21:00:00 19,0 7,7 17,5 20,6 15,4 13 7 28 15 N 1021,5 60 52 0,0
21.05.2017 20:00:00 20,5 7,5 22,3 20,5 15,5 19 10 27 15 NNE 1021,6 55 60 0,0
21.05.2017 19:00:00 21,8 6,8 25,5 20,1 15,4 16 9 27 15 N 1021,7 38 60 0,0
21.05.2017 18:00:00 22,2 7,6 26,8 19,6 15,4 18 10 28 15 N 1022,2 43 60 0,0
21.05.2017 17:00:00 21,8 8,3 27,1 18,9 15,5 18 10 29 16 N 1022,7 43 60 0,0
21.05.2017 16:00:00 21,7 8,2 26,9 18,2 15,5 12 6 27 15 N 1023,3 48 60 0,0
21.05.2017 15:00:00 20,6 7,9 25,8 17,5 15,5 13 7 27 15 NE 1024,2 56 60 0,0
21.05.2017 14:00:00 20,0 8,3 25,6 16,9 15,5 14 8 29 16 NE 1024,9 26 60 0,0
21.05.2017 13:00:00 19,6 8,6 25,2 16,3 15,5 11 6 23 12 N 1025,6 53 60 0,0
21.05.2017 12:00:00 18,7 8,9 23,6 15,9 15,5 9 5 24 13 N 1026,6 51 60 0,0
21.05.2017 11:00:00 17,1 10,2 22,1 15,7 15,5 9 5 20 11 NE 1027,0 51 60 0,0
21.05.2017 10:00:00 15,6 9,9 19,4 15,6 15,5 6 4 13 7 N 1027,5 20 60 0,0
21.05.2017 09:00:00 13,2 8,5 16,4 15,7 15,5 8 4 15 8 NNE 1027,7 29 60 0,0
21.05.2017 08:00:00 11,0 7,7 9,8 16,0 15,5 8 4 12 7 N 1027,7 59 60 0,0
21.05.2017 07:00:00 7,7 6,9 3,6 16,2 15,5 4 2 6 4 NNW 1027,7 32 58 0,0
21.05.2017 06:00:00 5,5 4,8 3,3 16,5 15,5 3 2 5 3 S 1027,7 23 0 0,0
21.05.2017 05:00:00 6,5 5,9 3,8 16,8 15,5 3 1 8 4 WSW 1027,7 7 0 0,0
21.05.2017 04:00:00 6,6 5,9 4,3 17,0 15,5 3 1 5 3 NE 1027,7 19 0 0,0
21.05.2017 03:00:00 7,6 6,8 5,1 17,3 15,6 3 2 4 2 NNW 1027,6 36 0 0,0
21.05.2017 02:00:00 7,6 6,7 5,7 17,6 15,5 0 0 6 3 N 1027,6 19 0 0,0
21.05.2017 01:00:00 8,5 7,3 6,2 17,8 15,6 2 1 6 3 W 1027,6 52 0 0,0
21.05.2017 00:00:00 9,5 8,1 7,9 18,0 15,6 4 2 9 5 W 1027,2 47 0 0,0
20.05.2017 23:00:00 10,9 7,8 7,5 18,2 15,5 8 4 12 6 WSW 1026,9 60 0 0,0
20.05.2017 22:00:00 11,4 7,7 8,9 18,3 15,6 5 3 11 6 NNE 1026,3 60 0 0,0
20.05.2017 21:00:00 14,6 7,4 12,7 18,3 15,6 6 3 13 7 N 1025,7 60 23 0,0
20.05.2017 20:00:00 16,5 7,2 16,7 18,1 15,5 9 5 14 8 NNW 1025,2 57 18 0,0
20.05.2017 19:00:00 16,7 7,3 17,5 17,8 15,6 6 3 16 9 NNW 1025,0 60 11 0,0
20.05.2017 18:00:00 17,9 6,4 19,5 17,5 15,6 8 4 18 10 WNW 1024,5 59 34 0,0
20.05.2017 17:00:00 16,9 7,3 19,4 17,2 15,6 9 5 16 9 S 1024,3 28 7 0,0
20.05.2017 16:00:00 16,0 7,0 15,5 16,9 15,6 3 1 16 9 N 1024,3 48 1 0,0
20.05.2017 15:00:00 16,1 6,8 18,0 16,6 15,6 6 4 18 10 WNW 1023,9 60 5 0,0
20.05.2017 14:00:00 15,7 7,2 17,5 16,4 15,6 10 5 17 9 SW 1023,7 48 0 0,0
20.05.2017 13:00:00 14,8 7,6 16,5 16,1 15,6 11 6 21 11 S 1023,5 60 0 0,0
20.05.2017 12:00:00 15,0 8,0 17,7 15,8 15,5 13 7 24 13 S 1023,1 50 23 0,0
20.05.2017 11:00:00 14,0 8,8 16,2 15,6 15,6 15 8 25 13 S 1022,9 44 5 0,0
20.05.2017 10:00:00 14,0 9,6 14,0 15,6 15,5 12 7 22 12 SSW 1022,6 50 35 0,0
20.05.2017 09:00:00 11,4 8,6 14,0 15,7 15,6 12 7 24 13 SSW 1022,3 46 34 0,0
20.05.2017 08:00:00 9,8 7,9 10,3 15,9 15,6 11 6 18 10 S 1022,1 24 60 0,0
20.05.2017 07:00:00 8,3 7,2 5,0 16,1 15,6 4 2 8 5 SW 1021,2 31 56 0,0
20.05.2017 06:00:00 6,8 6,1 4,8 16,3 15,5 4 2 19 10 WSW 1020,6 20 0 0,0
20.05.2017 05:00:00 7,4 6,7 5,4 16,6 15,6 14 7 21 12 S 1020,3 28 0 0,0
20.05.2017 04:00:00 7,1 6,5 5,2 16,9 15,5 11 6 18 10 S 1020,1 17 0 0,0
20.05.2017 03:00:00 7,4 6,8 5,1 17,1 15,5 10 5 16 9 S 1020,1 27 0 0,0
20.05.2017 02:00:00 7,9 7,1 5,6 17,4 15,5 5 3 14 8 S 1019,9 35 0 0,0
20.05.2017 01:00:00 8,4 7,3 6,7 17,6 15,5 6 3 16 9 SSW 1020,1 40 0 0,0
20.05.2017 00:00:00 9,4 7,8 8,4 17,9 15,5 10 5 24 13 S 1019,7 60 0 0,0
19.05.2017 23:00:00 10,0 8,1 9,1 18,0 15,5 14 8 25 13 S 1019,4 60 0 0,0
19.05.2017 22:00:00 10,4 8,3 9,6 18,2 15,5 14 7 25 14 S 1019,1 60 0 0,0
19.05.2017 21:00:00 11,8 9,0 11,5 18,3 15,5 12 6 26 14 S 1018,6 59 51 0,0
19.05.2017 20:00:00 12,0 8,8 12,3 18,4 15,5 15 8 30 16 S 1018,0 35 55 0,0
19.05.2017 19:00:00 12,6 8,3 13,8 18,4 15,4 19 10 34 18 S 1017,6 59 35 0,0
19.05.2017 18:00:00 12,6 8,9 11,9 18,4 15,4 13 7 27 15 S 1017,6 46 7 0,0
19.05.2017 17:00:00 11,4 9,6 10,6 18,5 15,4 12 7 21 11 SSW 1017,1 21 0 0,8
19.05.2017 16:00:00 11,0 8,4 10,5 18,6 15,4 18 10 34 18 WSW 1016,9 19 0 1,0
19.05.2017 15:00:00 12,3 9,5 12,2 18,6 15,4 23 12 29 16 WSW 1016,0 39 0 0,0
19.05.2017 14:00:00 12,8 10,0 11,6 18,6 15,4 14 8 26 14 W 1014,9 48 0 1,0
19.05.2017 13:00:00 12,0 9,7 11,4 18,8 15,4 18 10 28 15 W 1014,7 9 0 1,6
19.05.2017 12:00:00 12,3 10,7 12,0 18,9 15,4 12 6 22 12 W 1013,8 36 0 1,0
19.05.2017 11:00:00 12,2 10,6 12,0 19,0 15,3 12 7 20 11 W 1013,6 15 0 1,0
19.05.2017 10:00:00 12,2 10,6 11,9 19,3 15,3 8 4 19 10 NW 1013,0 20 0 1,0
19.05.2017 09:00:00 12,0 10,9 11,6 19,7 15,3 10 5 20 11 NW 1012,9 5 0 4,8
19.05.2017 08:00:00 12,1 10,8 11,6 20,0 15,3 16 9 35 19 NW 1012,4 2,3 0 2,5

tt = Température de l'air
td = dewpoint
tt 5cm = Température de l'air 5cm
tt -20cm = Température de l'air -20cm
tt -100cm = Température de l'air -100cm
ff = Vitesse du vent
fx = gusts
dd = Direction du vent
ppp = reduced air pressure
vv = visibility
sd = Ensoleillement
rr = Quantités de précipitations

stations d'obs. à proximité